Location: Jodlow
(50.1500°N, 16.7500°E)
Time: 01:11:46
(UTC+02:00)

O/OREOS (USA 219) - Pass Details

Date: 02 April 2023
Orbit: 621 x 646 km, 72.0° (Epoch: 22 May)

Event Time Altitude Azimuth Distance (km) Brightness Sun altitude
Exits shadow 04:35:06 - 171° (S) 2,510 ? -17.8°
Reaches altitude 10° 04:36:27 10° 164° (SSE) 2,031 ? -17.6°
Maximum altitude 04:40:21 28° 105° (ESE) 1,194 ? -17.1°
Drops below altitude 10° 04:44:15 10° 47° (NE) 2,033 ? -16.6°
Sets 04:46:45 0° 36° (NE) 2,942 ? -16.2°
